EW5945 Weather Reports


Display with metric or nautical units.
time (UTC)temp
F
wind
direction
speed
MPH
gust
MPH
rain 1hr
in
rain 24hr
in
rain mn
in
humidity
%
barometer
mb
20260903145839 86 211 5.0 5.0 0.00 0.00 0.00 76 1018.6
20260903145339 86 325 0.0 0.0 0.00 0.00 0.00 79 1018.6
20260903144839 86 246 2.0 2.0 0.00 0.00 0.00 77 1018.6
20260903144338 86 258 5.0 5.0 0.00 0.00 0.00 76 1018.6
20260903143839 85 224 3.0 3.0 0.00 0.00 0.00 77 1018.6
20260903143339 85 261 2.0 3.0 0.00 0.00 0.00 78 1018.6
20260903142839 85 269 3.0 3.0 0.00 0.00 0.00 80 1018.6
20260903142341 85 234 2.0 3.0 0.00 0.00 0.00 78 1018.6
20260903141844 84 244 3.0 7.0 0.00 0.00 0.00 77 1018.6
20260903141338 84 225 3.0 5.0 0.00 0.00 0.00 77 1018.6
20260903140839 84 237 5.0 5.0 0.00 0.00 0.00 79 1018.6
20260903140339 84 239 5.0 5.0 0.00 0.00 0.00 80 1018.6
20260903135841 84 240 3.0 3.0 0.00 0.00 0.00 84 1018.6
20260903135339 83 235 6.0 7.0 0.00 0.00 0.00 84 1018.3
20260903134839 83 210 2.0 3.0 0.00 0.00 0.00 84 1018.6
20260903134338 83 198 2.0 2.0 0.00 0.00 0.00 85 1018.6
20260903133840 83 237 2.0 3.0 0.00 0.00 0.00 87 1018.6
20260903133339 83 227 3.0 3.0 0.00 0.00 0.00 87 1018.3
20260903132838 82 266 2.0 7.0 0.00 0.00 0.00 89 1018.6
20260903132339 81 234 3.0 5.0 0.00 0.00 0.00 89 1018.6
20260903131838 81 204 3.0 3.0 0.00 0.00 0.00 92 1018.6
20260903131338 81 225 2.0 2.0 0.00 0.00 0.00 93 1018.6
20260903130840 81 219 5.0 5.0 0.00 0.00 0.00 94 1018.6
20260903130339 81 279 3.0 3.0 0.00 0.00 0.00 95 1018.6
20260903125838 80 259 5.0 5.0 0.00 0.00 0.00 96 1019.0
20260903125339 80 221 3.0 3.0 0.00 0.00 0.00 97 1019.0
20260903124840 79 221 3.0 5.0 0.00 0.00 0.00 98 1018.6
20260903124341 79 226 2.0 3.0 0.00 0.00 0.00 99 1018.6
20260903123839 79 227 2.0 2.0 0.00 0.00 0.00 99 1018.6
20260903123339 78 226 3.0 3.0 0.00 0.00 0.00 99 1018.6
20260903122839 78 227 3.0 3.0 0.00 0.00 0.00 100 1018.6
20260903122338 78 227 3.0 3.0 0.00 0.00 0.00 100 1018.6
20260903121838 78 254 2.0 2.0 0.00 0.00 0.00 100 1018.6
20260903121338 78 228 0.0 2.0 0.00 0.00 0.00 100 1018.6
20260903120838 78 237 2.0 2.0 0.00 0.00 0.00 100 1018.6
20260903120338 77 259 0.0 2.0 0.00 0.00 0.00 100 1018.6
20260903115839 77 281 2.0 2.0 0.00 0.00 0.00 100 1018.6
20260903115338 77 248 3.0 3.0 0.00 0.00 0.00 100 1018.6
20260903114839 77 249 2.0 2.0 0.00 0.00 0.00 100 1018.6
20260903114340 77 253 2.0 2.0 0.00 0.00 0.00 100 1018.6
20260903113838 76 274 0.0 0.0 0.00 0.00 0.00 100 1018.3
20260903113338 76 273 0.0 0.0 0.00 0.00 0.00 100 1018.3
20260903112839 76 277 0.0 0.0 0.00 0.00 0.00 100 1018.3
20260903112338 76 270 0.0 0.0 0.00 0.00 0.00 100 1018.3
20260903111838 76 250 0.0 2.0 0.00 0.00 0.00 100 1018.3
20260903111338 76 292 2.0 2.0 0.00 0.00 0.00 100 1018.3
20260903110838 76 267 0.0 0.0 0.00 0.00 0.00 100 1018.3
20260903110339 76 296 0.0 0.0 0.00 0.00 0.00 100 1018.3
20260903105838 76 298 0.0 0.0 0.00 0.00 0.00 100 1017.9
20260903105339 76 298 0.0 0.0 0.00 0.00 0.00 100 1017.9
20260903104839 76 297 0.0 0.0 0.00 0.00 0.00 100 1017.9
20260903104338 76 298 0.0 0.0 0.00 0.00 0.00 100 1017.9
20260903103838 76 298 0.0 0.0 0.00 0.00 0.00 100 1017.9
20260903103339 76 291 0.0 0.0 0.00 0.00 0.00 100 1017.9
20260903102838 76 291 0.0 0.0 0.00 0.00 0.00 100 1017.9
20260903102338 76 291 0.0 0.0 0.00 0.00 0.00 100 1017.9
20260903101838 76 291 0.0 0.0 0.00 0.00 0.00 100 1017.9
20260903101338 76 290 0.0 0.0 0.00 0.00 0.00 100 1017.9
20260903100838 76 290 0.0 0.0 0.00 0.00 0.00 100 1017.9
20260903100338 76 289 0.0 0.0 0.00 0.00 0.00 100 1017.6
20260903095838 76 289 0.0 0.0 0.00 0.00 0.00 100 1017.6
20260903095339 76 289 0.0 0.0 0.00 0.00 0.00 100 1017.6
20260903094840 76 256 0.0 0.0 0.00 0.00 0.00 100 1017.6
20260903094339 77 252 0.0 2.0 0.00 0.00 0.00 100 1017.6
20260903093838 76 255 2.0 2.0 0.00 0.00 0.00 100 1017.6
20260903093338 76 269 2.0 2.0 0.00 0.00 0.00 100 1017.6
20260903092838 76 288 0.0 0.0 0.00 0.00 0.00 100 1017.6
20260903092338 76 295 0.0 0.0 0.00 0.00 0.00 100 1017.3
20260903091840 76 294 0.0 0.0 0.00 0.00 0.00 100 1017.3
20260903091340 76 297 0.0 0.0 0.00 0.00 0.00 100 1017.3
20260903090839 76 296 0.0 0.0 0.00 0.00 0.00 100 1017.3
20260903090338 77 295 0.0 0.0 0.00 0.00 0.00 100 1017.3
20260903085838 76 296 0.0 0.0 0.00 0.00 0.00 100 1017.3
20260903085338 77 295 0.0 0.0 0.00 0.00 0.00 100 1017.3
20260903084838 77 295 0.0 0.0 0.00 0.00 0.00 100 1017.3
20260903084338 77 292 0.0 0.0 0.00 0.00 0.00 100 1017.3
20260903083838 77 295 0.0 0.0 0.00 0.00 0.00 100 1017.3
20260903083340 77 295 0.0 0.0 0.00 0.00 0.00 100 1017.3
20260903082839 77 295 0.0 0.0 0.00 0.00 0.00 100 1017.3
20260903082339 77 295 0.0 0.0 0.00 0.00 0.00 100 1017.3
20260903081838 77 295 0.0 0.0 0.00 0.00 0.00 100 1017.3
20260903081338 77 295 0.0 0.0 0.00 0.00 0.00 100 1017.3
20260903080839 77 295 0.0 0.0 0.00 0.00 0.00 100 1017.3
20260903080338 77 296 0.0 0.0 0.00 0.00 0.00 100 1017.3
20260903075839 77 284 0.0 0.0 0.00 0.00 0.00 100 1017.3
20260903075338 77 279 0.0 0.0 0.00 0.00 0.00 100 1017.3
20260903074839 77 279 0.0 0.0 0.00 0.00 0.00 100 1017.3
20260903074338 77 281 0.0 0.0 0.00 0.00 0.00 100 1017.3
20260903073838 77 280 0.0 0.0 0.00 0.00 0.00 100 1016.9
20260903073338 77 261 0.0 2.0 0.00 0.00 0.00 100 1016.9
20260903072838 77 282 0.0 0.0 0.00 0.00 0.00 100 1016.9
20260903072338 77 292 0.0 0.0 0.00 0.00 0.00 100 1016.9
20260903071838 77 292 0.0 0.0 0.00 0.00 0.00 100 1016.9
20260903071339 77 292 0.0 0.0 0.00 0.00 0.00 100 1016.9
20260903070841 77 292 0.0 0.0 0.00 0.00 0.00 100 1016.9
20260903070339 77 293 0.0 0.0 0.00 0.00 0.00 100 1016.9
20260903065838 77 287 0.0 0.0 0.00 0.00 0.00 100 1016.9
20260903065339 77 289 0.0 0.0 0.00 0.00 0.00 100 1016.9
20260903064838 78 286 0.0 0.0 0.00 0.00 0.00 100 1016.9
20260903064339 78 284 0.0 0.0 0.00 0.00 0.00 100 1016.9
20260903063839 78 285 0.0 0.0 0.00 0.00 0.00 99 1016.9
20260903063339 78 326 0.0 0.0 0.00 0.00 0.00 99 1017.3
20260903062839 78 324 0.0 2.0 0.00 0.00 0.00 99 1016.9
20260903062338 78 334 0.0 0.0 0.00 0.00 0.00 99 1017.3
20260903061839 78 338 0.0 0.0 0.00 0.00 0.00 99 1016.9
20260903061340 78 320 0.0 0.0 0.00 0.00 0.00 99 1016.9
20260903060841 78 317 0.0 0.0 0.00 0.00 0.00 99 1016.9
20260903060339 78 302 0.0 0.0 0.00 0.00 0.00 99 1016.9
20260903055839 78 308 0.0 0.0 0.00 0.00 0.00 99 1017.3
20260903055338 78 309 0.0 0.0 0.00 0.00 0.00 99 1017.3
20260903054838 78 294 0.0 0.0 0.00 0.00 0.00 99 1017.3
20260903054338 78 294 0.0 0.0 0.00 0.00 0.00 99 1016.9
20260903053839 78 292 0.0 0.0 0.00 0.00 0.00 99 1016.9
20260903053338 78 322 0.0 0.0 0.00 0.00 0.00 99 1016.9
20260903052839 78 284 0.0 0.0 0.00 0.00 0.00 99 1016.9
20260903052340 78 289 0.0 2.0 0.00 0.00 0.00 98 1016.9
20260903051838 78 322 0.0 0.0 0.00 0.00 0.00 98 1016.9
20260903051339 79 327 0.0 0.0 0.00 0.00 0.00 98 1017.3
20260903050838 79 328 0.0 0.0 0.00 0.00 0.00 98 1017.3
20260903050339 79 328 0.0 0.0 0.00 0.00 0.00 98 1017.3
20260903045839 79 286 0.0 0.0 0.00 0.00 0.00 98 1017.3
20260903045340 79 280 0.0 0.0 0.00 0.00 0.00 98 1017.3
20260903044838 79 270 0.0 0.0 0.00 0.00 0.00 97 1017.3
20260903044338 79 266 0.0 0.0 0.00 0.00 0.00 97 1017.3
20260903043838 79 263 0.0 0.0 0.00 0.00 0.00 97 1017.6
20260903043339 79 257 2.0 2.0 0.00 0.00 0.00 97 1017.6
20260903042838 79 329 0.0 0.0 0.00 0.00 0.00 97 1017.6
20260903042340 79 332 0.0 0.0 0.00 0.00 0.00 97 1017.6
20260903041839 79 290 0.0 0.0 0.00 0.00 0.00 97 1017.6
20260903041338 79 264 0.0 0.0 0.00 0.00 0.00 96 1017.6
20260903040838 80 288 0.0 0.0 0.00 0.00 0.00 96 1017.6
20260903040339 80 296 0.0 0.0 0.00 0.00 0.00 96 1017.6
20260903035838 80 286 0.0 0.0 0.00 0.00 0.00 96 1017.9
20260903035339 80 260 2.0 2.0 0.00 0.00 0.00 96 1017.6
20260903034839 80 285 2.0 2.0 0.00 0.00 0.00 96 1017.6
20260903034339 80 259 2.0 2.0 0.00 0.00 0.00 96 1017.6
20260903033838 80 260 2.0 2.0 0.00 0.00 0.00 96 1017.6
20260903033338 80 252 2.0 3.0 0.00 0.00 0.00 96 1017.6
20260903032838 80 235 2.0 2.0 0.00 0.00 0.00 96 1017.6
20260903032338 80 238 0.0 2.0 0.00 0.00 0.00 96 1017.6
20260903031839 80 251 2.0 2.0 0.00 0.00 0.00 96 1017.6
20260903031339 80 233 2.0 2.0 0.00 0.00 0.00 96 1017.6
20260903030839 80 257 0.0 0.0 0.00 0.00 0.00 96 1017.6
20260903030338 80 225 2.0 2.0 0.00 0.00 0.00 95 1017.6
20260903025838 80 247 2.0 2.0 0.00 0.00 0.00 95 1017.3
20260903025338 80 257 0.0 0.0 0.00 0.00 0.00 95 1017.3
20260903024839 80 248 0.0 2.0 0.00 0.00 0.00 95 1017.3
20260903024340 80 250 0.0 2.0 0.00 0.00 0.00 94 1017.6
20260903023838 81 281 0.0 0.0 0.00 0.00 0.00 94 1017.6
20260903023339 81 245 2.0 2.0 0.00 0.00 0.00 94 1017.3
20260903022839 81 265 2.0 2.0 0.00 0.00 0.00 94 1017.3
20260903022339 81 236 3.0 3.0 0.00 0.00 0.00 94 1017.6
20260903021838 81 235 2.0 2.0 0.00 0.00 0.00 94 1017.6
20260903021339 81 210 3.0 3.0 0.00 0.00 0.00 93 1017.6
20260903020839 81 212 3.0 3.0 0.00 0.00 0.00 93 1017.6
20260903020339 81 242 5.0 5.0 0.00 0.00 0.00 93 1017.6
20260903015838 81 244 3.0 3.0 0.00 0.00 0.00 93 1017.6
20260903015339 81 224 2.0 2.0 0.00 0.00 0.00 93 1017.6
20260903014838 81 279 0.0 2.0 0.00 0.00 0.00 92 1017.9
20260903014341 82 278 0.0 0.0 0.00 0.00 0.00 92 1017.9
20260903013839 82 233 2.0 2.0 0.00 0.00 0.00 92 1017.6
20260903013339 82 233 2.0 3.0 0.00 0.00 0.00 92 1017.6
20260903012839 82 277 0.0 0.0 0.00 0.00 0.00 91 1017.9
20260903012338 82 269 0.0 2.0 0.00 0.00 0.00 90 1017.6
20260903011839 82 306 0.0 0.0 0.00 0.00 0.00 90 1017.9
20260903011338 82 345 0.0 0.0 0.00 0.00 0.00 89 1017.9
20260903010839 82 36 3.0 3.0 0.00 0.00 0.00 89 1017.9
20260903010340 82 356 0.0 0.0 0.00 0.00 0.00 89 1017.6
20260903005838 83 285 0.0 0.0 0.00 0.00 0.00 88 1017.6
20260903005338 83 219 3.0 3.0 0.00 0.00 0.00 88 1017.6
20260903004839 83 233 5.0 5.0 0.00 0.00 0.00 88 1017.6
20260903004339 83 219 3.0 3.0 0.00 0.00 0.00 87 1017.3
20260903003838 83 278 0.0 0.0 0.00 0.00 0.00 87 1017.3
20260903003339 83 213 2.0 3.0 0.00 0.00 0.00 86 1017.3
20260903002840 83 239 2.0 2.0 0.00 0.00 0.00 86 1017.3
20260903002338 83 283 0.0 2.0 0.00 0.00 0.00 85 1017.6
20260903001838 83 274 0.0 3.0 0.00 0.00 0.00 85 1017.6
20260903001338 83 239 2.0 3.0 0.00 0.00 0.00 85 1017.6
20260903000839 83 234 2.0 2.0 0.00 0.00 0.00 86 1017.6
20260903000340 83 323 0.0 2.0 0.00 0.00 0.00 85 1017.6
20260902235838 84 271 0.0 0.0 0.00 0.00 0.00 85 1017.3
20260902235338 84 178 2.0 3.0 0.00 0.00 0.00 85 1017.3
20260902234839 84 220 5.0 5.0 0.00 0.00 0.00 84 1017.3
20260902234339 84 332 0.0 2.0 0.00 0.00 0.00 85 1017.3
20260902233838 85 5 0.0 2.0 0.00 0.00 0.00 85 1017.3
20260902233338 85 248 0.0 2.0 0.00 0.00 0.00 85 1017.3
20260902232839 85 258 0.0 0.0 0.00 0.00 0.00 84 1017.3
20260902232340 85 143 2.0 2.0 0.00 0.00 0.00 84 1017.3
20260902231839 86 265 0.0 0.0 0.00 0.00 0.00 84 1016.9
20260902231339 86 259 2.0 2.0 0.00 0.00 0.00 83 1016.9
20260902230838 86 227 2.0 3.0 0.00 0.00 0.00 83 1016.9
20260902230339 86 254 3.0 5.0 0.00 0.00 0.00 83 1016.9
20260902225839 87 343 0.0 0.0 0.00 0.00 0.00 82 1016.9
20260902225338 87 353 2.0 2.0 0.00 0.00 0.00 81 1016.9
20260902224839 87 257 0.0 2.0 0.00 0.00 0.00 82 1016.9
20260902224338 88 121 2.0 2.0 0.00 0.00 0.00 81 1016.9
20260902223838 88 301 0.0 0.0 0.00 0.00 0.00 81 1016.9
20260902223338 88 142 2.0 3.0 0.00 0.00 0.00 80 1016.6
20260902222838 88 119 3.0 3.0 0.00 0.00 0.00 81 1016.6
20260902222339 88 270 0.0 3.0 0.00 0.00 0.00 81 1016.6
20260902221839 89 15 0.0 2.0 0.00 0.00 0.00 81 1016.6
20260902221338 89 246 2.0 2.0 0.00 0.00 0.00 81 1016.6
20260902220838 90 251 0.0 2.0 0.00 0.00 0.00 80 1016.6
20260902220338 90 331 0.0 2.0 0.00 0.00 0.00 79 1016.6
20260902215838 90 232 2.0 2.0 0.00 0.00 0.00 79 1016.6
20260902215338 91 285 2.0 2.0 0.00 0.00 0.00 78 1016.6
20260902214839 90 81 2.0 2.0 0.00 0.00 0.00 79 1016.9
20260902214339 91 309 2.0 3.0 0.00 0.00 0.00 78 1016.6
20260902213838 91 107 3.0 3.0 0.00 0.00 0.00 77 1016.6
20260902213338 91 74 2.0 2.0 0.00 0.00 0.00 78 1016.6
20260902212840 92 30 3.0 3.0 0.00 0.00 0.00 76 1016.6
20260902212338 92 276 2.0 2.0 0.00 0.00 0.00 78 1016.3
20260902211839 92 287 2.0 2.0 0.00 0.00 0.00 76 1016.3
20260902211338 92 236 2.0 2.0 0.00 0.00 0.00 76 1016.3
20260902210838 92 350 3.0 3.0 0.00 0.00 0.00 76 1016.3
20260902210338 92 26 2.0 3.0 0.00 0.00 0.00 76 1016.3
20260902205839 93 308 2.0 2.0 0.00 0.00 0.00 74 1016.3
20260902205339 92 242 2.0 2.0 0.00 0.00 0.00 74 1016.6
20260902204838 92 325 2.0 2.0 0.00 0.00 0.00 75 1016.6
20260902204341 93 16 2.0 2.0 0.00 0.00 0.00 74 1016.6
20260902203840 94 220 5.0 7.0 0.00 0.00 0.00 71 1016.6
20260902203338 93 205 2.0 3.0 0.00 0.00 0.00 74 1016.6
20260902202838 94 334 2.0 3.0 0.00 0.00 0.00 71 1016.6
20260902202339 93 334 2.0 3.0 0.00 0.00 0.00 74 1016.6
20260902201838 94 301 2.0 3.0 0.00 0.00 0.00 73 1016.9
20260902201338 95 304 2.0 2.0 0.00 0.00 0.00 71 1016.6
20260902200839 94 212 2.0 3.0 0.00 0.00 0.00 71 1016.6
20260902200339 95 190 3.0 5.0 0.00 0.00 0.00 73 1016.6
20260902195838 94 303 3.0 5.0 0.00 0.00 0.00 72 1016.9
20260902195339 93 289 2.0 2.0 0.00 0.00 0.00 72 1016.9
20260902194839 94 27 2.0 2.0 0.00 0.00 0.00 69 1016.9
20260902194338 94 19 2.0 3.0 0.00 0.00 0.00 67 1016.9
20260902193838 96 199 5.0 7.0 0.00 0.00 0.00 65 1016.9
20260902193338 94 105 2.0 2.0 0.00 0.00 0.00 67 1016.9
20260902192841 94 331 2.0 2.0 0.00 0.00 0.00 65 1016.9
20260902192338 95 158 2.0 2.0 0.00 0.00 0.00 66 1017.3
20260902191838 95 339 3.0 3.0 0.00 0.00 0.00 66 1017.3
20260902191339 97 215 3.0 5.0 0.00 0.00 0.00 63 1017.3
20260902190839 97 240 3.0 3.0 0.00 0.00 0.00 61 1017.3
20260902190338 95 209 5.0 5.0 0.00 0.00 0.00 64 1017.3
20260902185838 96 223 3.0 5.0 0.00 0.00 0.00 62 1017.3
20260902185338 94 359 2.0 2.0 0.00 0.00 0.00 68 1017.3
20260902184839 94 163 2.0 5.0 0.00 0.00 0.00 67 1017.3
20260902184339 94 231 0.0 0.0 0.00 0.00 0.00 67 1017.3
20260902183838 94 248 0.0 3.0 0.00 0.00 0.00 65 1017.3
20260902183338 95 250 3.0 3.0 0.00 0.00 0.00 66 1017.3
20260902182839 94 352 0.0 2.0 0.00 0.00 0.00 65 1017.3
20260902182339 95 243 2.0 5.0 0.00 0.00 0.00 65 1017.3
20260902181838 95 228 3.0 3.0 0.00 0.00 0.00 64 1017.6
20260902181339 96 273 3.0 3.0 0.00 0.00 0.00 63 1017.6
20260902180841 95 47 2.0 2.0 0.00 0.00 0.00 64 1017.6
20260902180340 94 205 3.0 5.0 0.00 0.00 0.00 64 1017.6
20260902175840 94 227 3.0 5.0 0.00 0.00 0.00 68 1017.6
20260902175340 94 220 3.0 3.0 0.00 0.00 0.00 64 1017.6
20260902174840 94 284 2.0 3.0 0.00 0.00 0.00 64 1017.6
20260902174338 93 335 0.0 2.0 0.00 0.00 0.00 67 1017.6
20260902173839 93 31 2.0 7.0 0.00 0.00 0.00 67 1017.9
20260902173339 93 317 0.0 0.0 0.00 0.00 0.00 67 1017.6
20260902172840 92 57 2.0 2.0 0.00 0.00 0.00 67 1017.6
20260902172338 93 237 2.0 5.0 0.00 0.00 0.00 66 1017.6
20260902171839 93 276 5.0 5.0 0.00 0.00 0.00 66 1017.6
20260902171339 93 316 3.0 3.0 0.00 0.00 0.00 67 1017.9
20260902170911 92 269 5.0 5.0 0.00 0.00 0.00 69 1017.9
20260902170339 91 212 2.0 5.0 0.00 0.00 0.00 69 1017.9
20260902165838 92 199 0.0 2.0 0.00 0.00 0.00 69 1017.9
20260902165338 91 279 3.0 5.0 0.00 0.00 0.00 69 1017.9
20260902164838 92 259 2.0 5.0 0.00 0.00 0.00 72 1017.9
20260902164339 91 357 2.0 2.0 0.00 0.00 0.00 70 1017.9
20260902163839 91 308 5.0 5.0 0.00 0.00 0.00 71 1017.9
20260902163339 91 227 3.0 5.0 0.00 0.00 0.00 71 1017.9
20260902162839 90 295 3.0 3.0 0.00 0.00 0.00 71 1017.9
20260902162338 90 350 3.0 5.0 0.00 0.00 0.00 73 1018.3
20260902161840 90 310 0.0 2.0 0.00 0.00 0.00 72 1018.3
20260902161338 89 268 5.0 7.0 0.00 0.00 0.00 72 1018.3
20260902160841 89 276 3.0 3.0 0.00 0.00 0.00 72 1018.3
20260902160338 89 241 5.0 7.0 0.00 0.00 0.00 73 1018.3
20260902155839 89 317 5.0 7.0 0.00 0.00 0.00 73 1018.3
20260902155339 89 291 3.0 3.0 0.00 0.00 0.00 73 1018.3
20260902154838 88 277 5.0 5.0 0.00 0.00 0.00 74 1018.3
20260902154339 88 231 3.0 7.0 0.00 0.00 0.00 73 1018.3
20260902153839 88 245 2.0 2.0 0.00 0.00 0.00 74 1018.3
20260902153339 88 294 6.0 7.0 0.00 0.00 0.00 73 1018.3
20260902152845 88 279 3.0 3.0 0.00 0.00 0.00 73 1018.3
20260902152339 87 257 3.0 3.0 0.00 0.00 0.00 76 1018.3
20260902151838 87 291 5.0 7.0 0.00 0.00 0.00 74 1018.3
20260902151338 87 251 2.0 3.0 0.00 0.00 0.00 74 1018.3
20260902150847 87 285 3.0 5.0 0.00 0.00 0.00 75 1018.3
20260902150339 87 302 10.0 12.0 0.00 0.00 0.00 75 1018.3